This is the latest recevied weather packets stored in our database for station/object HK4DAP-11. If no packets are shown the sender has not sent any weather packets the latest 1 day(s).
| Time | Temp. | Humidity | Pressure | Rain* | Wind** | Luminosity | Snow |
|---|---|---|---|---|---|---|---|
| 1778191546 | 25° C | 72% | 847.8 hPa | - | - | - | - |
| 1778191246 | 25° C | 71% | 847.8 hPa | - | - | - | - |
| 1778190946 | 24.44° C | 72% | 847.7 hPa | - | - | - | - |
| 1778189745 | 24.44° C | 72% | 847.7 hPa | - | - | - | - |
| 1778189145 | 25° C | 71% | 847.7 hPa | - | - | - | - |
| 1778188845 | 25° C | 71% | 847.7 hPa | - | - | - | - |
| 1778186744 | 25° C | 68% | 847.7 hPa | - | - | - | - |
| 1778186444 | 25° C | 68% | 847.8 hPa | - | - | - | - |
| 1778185375 | 24.44° C | 68% | 847.8 hPa | - | - | - | - |
| 1778182542 | 25° C | 68% | 848.2 hPa | - | - | - | - |
| 1778182242 | 25° C | 68% | 848.3 hPa | - | - | - | - |
| 1778180741 | 25° C | 67% | 848.6 hPa | - | - | - | - |
| 1778180441 | 25° C | 67% | 848.7 hPa | - | - | - | - |
| 1778180141 | 24.44° C | 67% | 848.9 hPa | - | - | - | - |
| 1778178040 | 25° C | 69% | 849.3 hPa | - | - | - | - |
| 1778176539 | 25° C | 68% | 849.6 hPa | - | - | - | - |
| 1778176239 | 25° C | 69% | 849.7 hPa | - | - | - | - |
| 1778174138 | 24.44° C | 72% | 850.4 hPa | - | - | - | - |
| 1778173838 | 24.44° C | 73% | 850.5 hPa | - | - | - | - |
| 1778173239 | 24.44° C | 73% | 850.6 hPa | - | - | - | - |
| 1778172337 | 24.44° C | 72% | 850.8 hPa | - | - | - | - |
| 1778172037 | 24.44° C | 73% | 850.9 hPa | - | - | - | - |
| 1778171737 | 24.44° C | 72% | 850.9 hPa | - | - | - | - |
| 1778169936 | 24.44° C | 72% | 851.2 hPa | - | - | - | - |
| 1778169636 | 24.44° C | 73% | 851.3 hPa | - | - | - | - |
* Rain since midnight (hover to see other rain measurements)
** Current wind speed in m/s (hover to see current wind gust speed)